Wind_Speed
9 10 10 13 2 4 3 2 3 5 3 9 8 12 14 17 14 13 9 7 5 4 5 5 9 10 8 12 14 18 16 16 16 15 14 15 21 23 19 20 21 26 29 26
12 6 7 6 14 9 6 5 3 4 6 10 17 23 20 17 14 9 5 3 2 4 6 7 10 9 8 12 10 16 15 18 18 19 17 13 16 24 25 21 20 22 25 29
10 8 8 7 6 11 11 6 7 7 7 3 5 7 5 8 10 7 3 2 1 4 7 10 12 15 12 15 14 18 20 16 19 19 19 21 22 25 27 23 22 21 22 24
9 12 9 12 6 5 2 2 6 7 7 6 9 11 8 8 7 4 3 1 2 6 12 14 15 15 17 19 15 20 22 21 20 21 22 20 23 23 25 27 24 24 24 22
6 9 12 11 7 3 3 12 16 8 15 11 8 4 6 7 9 7 5 7 11 14 16 16 18 16 21 22 22 22 21 22 24 24 24 22 22 25 23 27 27 25 23 25
8 6 6 8 7 8 5 6 12 13 14 14 12 11 5 13 13 12 12 14 18 19 20 21 21 22 24 26 26 27 26 26 25 26 24 26 26 29 29 26 27 26 22 24
8 7 5 5 5 12 4 2 5 10 13 13 9 10 11 12 15 17 19 21 21 23 25 26 27 27 29 29 31 31 29 27 27 27 28 27 30 30 28 28 25 27 23 21
6 7 8 9 3 4 3 6 8 9 12 12 13 15 16 18 20 23 24 25 25 26 27 28 28 29 33 34 33 33 32 31 30 33 33 30 32 31 31 28 24 26 25 20
3 0 7 4 7 5 9 7 10 11 11 12 14 15 17 20 23 25 24 25 25 27 30 31 30 29 32 34 33 34 33 33 33 32 32 35 35 34 31 29 26 24 23 21
2 6 5 7 4 5 6 9 12 13 14 15 17 17 19 20 18 22 23 25 25 27 28 32 33 36 39 39 33 31 36 39 37 36 31 33 34 34 27 28 27 25 23 23
3 4 6 16 11 7 10 10 12 14 14 15 17 19 19 21 20 21 23 26 24 26 33 39 38 42 46 47 47 41 40 30 38 40 33 35 33 33 27 26 25 24 25 24
3 5 8 10 11 9 10 12 13 15 16 15 17 20 21 22 20 21 24 29 31 32 37 40 41 41 40 41 42 44 47 48 33 32 34 33 31 30 28 26 23 23 22 22
5 11 9 7 5 13 12 13 13 14 16 18 18 20 22 24 23 28 27 26 29 31 34 38 38 40 41 37 36 38 39 37 32 33 31 31 28 30 29 19 16 18 18 24
8 8 8 12 11 10 11 13 14 15 15 17 18 17 19 22 25 27 27 25 23 26 30 33 36 38 38 36 36 37 38 37 33 35 34 34 33 35 32 30 26 24 24 22
2 4 7 7 9 11 12 13 14 14 16 16 16 19 21 23 24 21 17 19 21 24 29 31 33 35 33 31 31 33 34 33 31 31 30 31 34 35 35 31 31 32 30 27
5 5 5 8 10 11 11 11 13 15 16 16 18 19 21 21 20 18 19 19 20 23 27 30 29 26 24 19 14 12 5 19 31 31 32 34 36 36 35 36 37 36 34 32
5 7 7 8 10 11 10 10 11 14 15 16 19 21 20 21 20 19 20 20 18 20 23 27 29 20 15 8 1 11 20 26 28 30 33 34 35 34 36 39 39 36 32 29
4 5 6 8 9 10 11 10 11 13 14 17 19 18 17 19 20 20 19 21 20 21 25 24 26 26 20 13 15 20 23 27 29 30 30 31 32 34 34 34 32 31 29 26
5 6 6 7 8 9 10 11 11 14 15 16 17 16 15 17 19 20 17 18 20 21 25 24 22 23 22 22 19 20 23 25 25 24 24 24 24 23 23 24 25 26 25 24
8 8 8 7 8 11 15 12 13 14 15 15 15 15 16 17 19 19 15 13 18 18 19 20 20 23 21 20 20 19 20 24 25 24 23 23 22 21 21 23 26 27 26 23
9 11 11 15 17 19 15 14 13 15 15 14 14 14 15 15 17 17 17 15 18 16 16 15 15 16 18 18 19 19 18 18 19 21 21 22 21 21 22 22 23 23 21 19
12 13 14 16 18 19 18 13 13 15 15 15 14 14 14 13 15 16 14 17 16 16 13 13 11 11 11 10 12 13 13 14 17 19 19 18 19 21 21 21 20 19 18 16
13 14 16 16 16 18 18 16 21 15 14 14 14 14 14 12 13 15 15 17 15 16 12 12 6 8 8 8 9 9 11 13 14 14 15 15 17 18 17 16 15 15 14 14
13 14 16 18 18 19 21 19 18 16 17 15 11 11 14 14 11 11 16 16 13 12 14 12 4 5 6 6 6 7 7 8 10 11 12 12 12 13 13 13 13 13 13 11
14 17 19 19 17 15 16 23 21 16 13 11 7 10 12 15 10 14 16 14 11 9 9 8 8 5 6 4 3 4 4 5 6 6 6 7 7 9 10 9 9 10 11 10
16 16 17 17 18 16 20 20 21 20 9 7 7 13 15 14 13 16 14 12 10 5 6 5 4 5 5 5 4 4 4 4 4 4 4 5 6 7 7 8 9 9 10 9
14 15 16 18 18 18 21 23 22 16 7 8 10 14 16 14 14 10 12 11 9 5 5 2 2 2 2 2 2 1 1 3 3 4 5 5 6 7 7 8 8 8 7 7
Wind_Direction
327 318 325 320 314 155 158 90 25 47 94 176 179 193 197 214 212 203 188 210 199 275 293 289 305 329 342 318 334 320 318 302 303 302 285 287 296 294 284 272 269 261 256 246
315 296 308 322 293 262 206 185 224 189 239 167 197 205 213 207 208 176 212 251 281 271 287 294 297 296 304 304 331 314 319 308 308 296 295 279 290 290 286 279 277 271 260 254
295 335 339 286 257 250 272 241 209 224 241 274 190 250 282 200 165 160 230 289 232 294 300 302 299 298 300 302 302 301 301 301 312 306 291 284 281 281 285 282 274 275 269 259
286 295 267 279 184 311 274 301 316 324 352 125 95 78 101 107 147 187 160 246 273 285 288 287 286 282 294 298 299 293 299 301 296 297 300 294 288 279 287 289 284 276 273 263
261 277 293 282 35 317 200 65 24 24 65 78 75 75 86 104 72 59 25 318 295 284 284 288 284 282 286 282 281 274 277 286 289 297 301 289 291 283 285 289 289 284 279 273
254 286 284 73 32 31 352 98 29 39 38 28 8 72 6 357 358 331 313 300 300 304 299 292 291 287 280 275 270 271 267 279 277 282 284 288 286 284 284 281 287 282 275 275
235 248 271 41 354 316 260 101 29 38 33 19 12 4 351 328 317 313 308 304 301 301 298 296 295 291 284 278 276 278 274 275 277 272 279 290 286 288 294 278 281 283 279 277
262 237 242 357 292 31 96 54 28 28 20 3 345 330 321 321 320 314 310 307 306 305 302 299 297 293 288 284 282 279 275 273 269 267 272 281 283 291 293 284 285 281 280 280
167 331 273 106 141 54 48 30 12 360 344 333 328 321 321 314 308 310 310 307 307 304 299 296 294 291 287 286 284 282 279 275 266 266 267 275 282 287 286 279 275 268 271 271
183 172 223 216 154 93 61 17 346 334 334 333 330 321 309 303 313 308 306 308 308 311 312 307 302 298 292 289 293 286 272 271 268 260 259 269 279 283 277 264 263 261 256 250
92 40 298 32 25 26 1 348 348 341 338 332 323 316 318 315 310 306 302 305 306 304 304 301 300 291 285 276 275 278 268 267 259 256 254 262 271 280 271 260 256 255 251 242
52 2 20 16 7 359 11 358 350 350 339 335 327 320 315 313 313 312 307 306 306 302 299 300 301 296 290 284 280 272 266 260 258 257 250 254 264 271 261 254 252 250 238 225
10 2 342 317 15 17 0 359 349 340 337 334 333 326 320 318 314 309 307 305 304 307 314 315 309 302 300 292 279 269 263 257 248 250 245 247 259 255 239 223 231 234 213 184
17 350 353 13 2 359 360 351 345 340 341 340 333 327 318 316 314 313 310 309 316 324 326 325 319 311 308 301 290 278 265 252 239 232 233 244 248 231 225 207 186 175 175 171
351 5 2 355 355 357 353 349 346 345 342 339 338 334 331 327 327 331 328 326 326 336 339 337 330 320 317 310 297 291 272 244 222 217 225 225 222 211 199 186 172 162 159 161
1 6 356 5 353 353 351 351 348 341 339 333 334 335 333 329 333 333 336 337 336 344 350 351 348 331 323 311 299 304 188 198 201 209 207 203 195 185 176 171 163 161 163 162
352 356 358 351 351 348 359 347 336 335 331 330 330 331 337 337 339 337 339 338 342 356 2 4 5 11 350 332 159 143 157 167 179 178 176 174 171 168 164 160 158 158 157 161
347 338 342 345 340 340 343 341 334 336 333 327 331 339 342 341 339 335 342 345 343 355 9 14 20 28 43 75 109 124 134 139 150 155 155 153 153 154 155 155 153 152 154 158
327 325 327 330 333 333 333 333 325 329 331 332 340 341 340 340 349 347 342 345 347 354 359 8 27 34 46 65 81 103 113 119 123 127 134 138 142 149 153 156 156 158 161 163
319 318 316 314 325 320 318 313 317 321 328 332 337 340 341 342 345 349 352 348 347 349 351 359 10 36 44 57 73 85 97 107 109 112 118 121 125 132 142 147 148 149 148 147
308 309 307 305 310 316 315 319 314 317 318 329 332 337 338 346 348 349 351 357 345 349 351 0 8 20 32 50 61 70 78 91 100 113 119 126 128 132 137 141 146 144 141 140
304 301 300 303 306 313 321 316 311 308 309 313 319 326 334 343 347 354 343 345 343 347 346 353 7 21 28 44 54 67 82 106 114 116 116 120 124 127 127 131 134 136 138 140
299 299 301 301 303 305 306 298 302 307 307 307 312 317 326 342 342 335 345 342 349 355 350 351 23 34 37 47 64 77 89 103 107 111 115 119 124 129 130 134 138 142 142 144
312 310 310 308 304 301 300 299 299 296 301 298 289 315 319 318 329 325 331 343 345 352 5 14 64 52 51 63 73 82 88 97 108 116 119 126 129 133 138 142 146 149 149 149
317 317 313 313 315 307 314 305 301 277 283 295 268 298 306 316 277 313 323 340 344 352 3 22 45 53 51 59 73 89 103 110 117 122 132 142 150 157 159 161 164 165 168 173
318 318 320 318 323 322 321 313 298 294 274 282 293 301 302 287 295 310 309 323 340 338 340 12 61 69 63 69 85 95 106 122 131 143 156 168 170 169 167 170 172 170 172 175
325 327 331 328 320 317 309 312 315 299 300 305 300 305 311 299 276 286 300 304 325 317 326 7 93 67 71 85 97 109 188 181 171 181 182 187 184 185 183 180 180 181 182 182
Height
1359 1354 1350 1345 1342 1344 1347 1348 1343 1351 1353 1360 1364 1366 1363 1364 1368 1370 1371 1371 1371 1374 1377 1379 1382 1377 1378 1378 1377 1376 1376 1377 1376 1376 1376 1375 1375 1375 1374 1375 1376 1377 1379 1378
1358 1350 1345 1358 1345 1332 1337 1342 1343 1346 1349 1344 1351 1358 1360 1359 1363 1369 1369 1367 1369 1374 1375 1377 1381 1382 1377 1375 1375 1379 1378 1375 1372 1372 1372 1370 1371 1370 1370 1368 1369 1370 1371 1373
1360 1346 1354 1351 1343 1339 1334 1329 1335 1341 1339 1339 1344 1351 1353 1351 1357 1364 1366 1366 1369 1372 1374 1377 1378 1377 1373 1372 1372 1375 1375 1373 1371 1366 1366 1364 1365 1365 1363 1362 1363 1364 1364 1363
1368 1357 1361 1336 1332 1332 1333 1332 1331 1332 1333 1337 1348 1352 1355 1358 1364 1364 1365 1367 1370 1373 1375 1375 1374 1375 1372 1370 1368 1369 1368 1370 1367 1366 1363 1358 1360 1357 1357 1358 1357 1358 1357 1355
1368 1355 1340 1331 1342 1337 1336 1340 1340 1338 1344 1348 1351 1353 1357 1365 1364 1364 1365 1368 1371 1371 1370 1371 1372 1366 1367 1368 1364 1367 1364 1365 1362 1360 1358 1358 1351 1354 1349 1353 1351 1350 1349 1348
1362 1364 1351 1346 1342 1341 1339 1349 1352 1351 1353 1354 1354 1365 1368 1367 1364 1366 1367 1369 1368 1366 1367 1368 1362 1363 1362 1362 1361 1360 1359 1358 1356 1357 1354 1352 1347 1345 1347 1345 1346 1345 1343 1344
1360 1362 1348 1351 1351 1346 1349 1369 1358 1358 1359 1359 1359 1363 1366 1366 1366 1367 1367 1366 1366 1363 1361 1358 1356 1355 1354 1353 1352 1352 1349 1348 1348 1347 1347 1343 1339 1338 1341 1339 1337 1340 1335 1336
1357 1356 1359 1357 1351 1356 1362 1360 1360 1360 1361 1362 1363 1364 1364 1364 1365 1365 1362 1360 1357 1354 1352 1350 1348 1348 1345 1345 1344 1343 1342 1339 1338 1340 1337 1335 1332 1332 1329 1331 1327 1331 1330 1327
1367 1372 1366 1360 1363 1361 1361 1362 1362 1363 1363 1363 1364 1364 1364 1365 1363 1359 1358 1355 1352 1350 1346 1343 1342 1342 1340 1337 1335 1334 1331 1330 1329 1329 1329 1327 1326 1325 1320 1324 1324 1326 1326 1325
1359 1366 1367 1360 1358 1361 1363 1364 1365 1365 1364 1363 1363 1364 1363 1362 1360 1359 1355 1352 1349 1345 1340 1336 1334 1332 1330 1327 1327 1326 1323 1321 1320 1318 1319 1318 1317 1318 1314 1320 1319 1319 1320 1324
1363 1366 1369 1363 1363 1363 1364 1365 1365 1366 1365 1364 1363 1361 1359 1357 1356 1356 1353 1350 1346 1343 1338 1333 1329 1324 1319 1316 1314 1312 1310 1310 1310 1306 1307 1308 1309 1309 1311 1311 1314 1316 1317 1319
1365 1366 1364 1364 1365 1365 1365 1366 1366 1365 1364 1363 1361 1359 1357 1354 1352 1350 1348 1344 1340 1336 1330 1323 1317 1310 1305 1301 1298 1295 1294 1295 1296 1292 1294 1299 1301 1304 1306 1306 1308 1309 1313 1315
1364 1365 1365 1364 1364 1365 1366 1366 1366 1365 1363 1361 1360 1358 1355 1352 1350 1346 1343 1339 1334 1328 1321 1313 1304 1296 1289 1285 1283 1279 1276 1277 1282 1281 1284 1288 1293 1299 1300 1301 1303 1307 1311 1314
1365 1367 1364 1365 1367 1366 1366 1367 1366 1365 1363 1362 1360 1357 1354 1350 1346 1342 1337 1333 1329 1323 1315 1306 1296 1286 1278 1270 1264 1260 1258 1261 1267 1269 1274 1281 1288 1292 1296 1296 1298 1305 1310 1314
1366 1366 1367 1368 1367 1367 1367 1367 1367 1365 1364 1361 1359 1356 1352 1347 1342 1337 1333 1329 1324 1318 1310 1300 1289 1277 1268 1259 1250 1242 1239 1245 1254 1260 1268 1274 1279 1285 1291 1291 1294 1303 1308 1314
1366 1367 1367 1368 1369 1368 1368 1368 1367 1365 1363 1361 1357 1353 1349 1345 1340 1335 1331 1327 1322 1315 1307 1298 1287 1275 1265 1257 1248 1239 1234 1240 1248 1255 1262 1268 1274 1280 1284 1289 1294 1301 1307 1311
1369 1369 1370 1370 1369 1369 1368 1368 1367 1365 1362 1359 1355 1351 1347 1343 1338 1333 1329 1325 1320 1315 1308 1299 1289 1278 1267 1261 1254 1249 1247 1248 1252 1257 1262 1268 1273 1277 1283 1287 1292 1301 1308 1314
1372 1372 1371 1370 1370 1369 1368 1367 1365 1363 1360 1357 1353 1349 1346 1342 1338 1333 1328 1323 1319 1314 1308 1302 1293 1285 1277 1270 1264 1261 1259 1260 1261 1264 1268 1273 1278 1284 1289 1293 1297 1302 1309 1315
1372 1371 1371 1370 1369 1368 1367 1365 1363 1360 1358 1355 1352 1349 1346 1342 1337 1333 1328 1324 1319 1313 1309 1305 1299 1292 1286 1280 1276 1273 1271 1271 1272 1275 1277 1281 1284 1289 1293 1297 1302 1308 1314 1319
1372 1371 1370 1369 1368 1366 1364 1362 1361 1358 1356 1353 1351 1348 1345 1342 1338 1333 1329 1325 1321 1317 1312 1307 1303 1299 1294 1291 1286 1284 1283 1281 1281 1283 1285 1288 1292 1297 1301 1305 1310 1316 1320 1322
1371 1370 1368 1367 1366 1364 1362 1360 1358 1356 1354 1352 1349 1347 1344 1341 1338 1334 1330 1326 1322 1317 1314 1311 1307 1304 1300 1297 1294 1293 1292 1291 1293 1294 1297 1300 1302 1305 1308 1312 1316 1319 1323 1326
1368 1367 1366 1364 1363 1361 1359 1357 1356 1354 1352 1349 1347 1345 1343 1341 1338 1335 1331 1328 1324 1320 1316 1312 1310 1308 1306 1305 1303 1302 1301 1301 1303 1304 1306 1308 1309 1312 1315 1317 1321 1324 1328 1331
1365 1364 1363 1361 1359 1357 1356 1355 1352 1351 1349 1347 1345 1343 1341 1340 1338 1335 1332 1329 1325 1321 1318 1315 1313 1312 1311 1310 1309 1308 1308 1309 1309 1311 1312 1314 1316 1318 1320 1323 1326 1329 1331 1333
1363 1361 1360 1358 1356 1354 1351 1350 1349 1347 1345 1344 1343 1342 1340 1338 1337 1335 1333 1329 1326 1323 1320 1318 1316 1315 1315 1315 1315 1314 1314 1314 1315 1316 1317 1319 1321 1323 1325 1327 1329 1331 1333 1335
1360 1359 1357 1354 1352 1350 1348 1346 1344 1343 1342 1339 1339 1339 1339 1336 1335 1333 1331 1329 1327 1325 1322 1320 1319 1318 1318 1318 1318 1318 1319 1320 1320 1321 1322 1323 1324 1326 1327 1329 1330 1332 1333 1335
1358 1356 1354 1352 1350 1347 1345 1342 1340 1339 1336 1337 1337 1336 1335 1334 1333 1331 1330 1329 1327 1326 1324 1322 1321 1321 1321 1321 1321 1321 1321 1322 1322 1323 1324 1324 1326 1327 1328 1330 1331 1333 1334 1336
1356 1354 1352 1350 1347 1345 1342 1340 1338 1336 1333 1334 1335 1334 1332 1331 1330 1329 1329 1328 1327 1326 1324 1324 1323 1323 1323 1323 1323 1323 1324 1324 1324 1325 1326 1327 1328 1328 1330 1331 1332 1334 1334 1336